Skip Page Navigation
NASA JPL Caltech
NASA Logo - Jet Propulsion Laboratory + View the NASA Portal
+ Center for Near-Earth Object Studies
JPL Home Earth Solar System Stars & Galaxies Technology
JPL Solar System Dynamics
BODIES ORBITS EPHEMERIDES TOOLS PHYSICAL DATA DISCOVERY FAQ SITE MAP
JPL Small-Body Database Browser
Search: [ help ]  
227511 (2005 YN13)
Classification: Main-belt Asteroid          SPK-ID: 2227511
Ephemeris | Orbit Diagram | Orbital Elements | Mission Design | Physical Parameters | Discovery Circumstances | Close-Approach Data ]

[ show orbit diagram ]
Orbital Elements at Epoch 2459200.5 (2020-Dec-17.0) TDB
Reference: JPL 20 (heliocentric ecliptic J2000)
 Element Value Uncertainty (1-sigma)   Units 
e .1369643259675559 5.1743e-08  
a 2.871287959887938 2.7996e-08 au
q 2.478023939803128 1.5433e-07 au
i 9.088831976748939 5.5477e-06 deg
node 118.2928006650484 3.0053e-05 deg
peri 167.8007684745994 3.5621e-05 deg
M 221.8304675433332 2.2585e-05 deg
tp 2459882.561190700084
(2022-Oct-30.06119070)
0.00011619 TDB
period 1777.106893873566
4.87
2.5991e-05
7.116e-08
d
yr
n .2025764467185802 2.9628e-09 deg/d
Q 3.264551979972748 3.183e-08 au
  Orbit Determination Parameters
   # obs. used (total)      367  
   data-arc span      6946 days (19.02 yr)  
   first obs. used      2002-03-12  
   last obs. used      2021-03-18  
   planetary ephem.      DE441  
   SB-pert. ephem.      SB441-N16  
   condition code      0  
   norm. resid. RMS      .54438  
   source      ORB  
   producer      Otto Matic  
   solution date      2021-May-04 10:50:39  

Additional Information
 Earth MOID = 1.46056 au 
 Jupiter MOID = 1.91478 au 
 T_jup = 3.265 
[ show covariance matrix ]

Ephemeris | Orbit Diagram | Orbital Elements | Mission Design | Physical Parameters | Discovery Circumstances | Close-Approach Data ]

Physical Parameter Table
Parameter Symbol Value Units Sigma Reference Notes
absolute magnitude H 15.75   n/a MPCxxxxx  

227511 (2005 YN13)          Discovered 2005-Dec-22 by Spacewatch at Kitt Peak
Reference: 20091202/Numbers.arcLast Updated: 2009-12-04

[ hide close-approach data ]
Close-Approach Data   ...sorted by Date/Time (TDB)
Date/Time (TDB) Time Uncertainty
(days_HH:MM)
Body Nominal Distance (au) Minimum Distance (au) Maximum Distance (au) V-relative (km/s) V-infinity (km/s) JD (TDB) Time Uncertainty (minutes) Semi-major axis (km) Semi-minor axis (km) range-LOV angle (deg) N-sigma BP Orbit Ref. Reference Modified
1917-Jun-30 15:02 00:04 Jupiter 1.97931975990639 1.97931846510736 1.97932105471711 2.68392537541118 2.51944102669021 2421410.126212923 4.3798961580887 291.99957588515 21.3850268570634 -83.887735649855 2421216.88720868 T 20 CATAB v2.0g-lin.ifort 2021-May-04 10:50:41 2021-May-04 10:50
1942-May-02 08:36 00:03 Jupiter 1.89659093524463 1.8965904533682 1.89659141712117 2.68380797537805 2.51189569382666 2430481.858097447 3.12834946022304 122.923166803138 17.3764386555906 -88.7781254175581 2013515.54395582 T 20 CATAB v2.0g-lin.ifort 2021-May-04 10:50:41 2021-May-04 10:50
2024-Aug-18 05:47 < 00:01 Jupiter 1.94085774379332 1.94085726515712 1.94085822242952 2.6302668406703 2.45875384706101 2460540.741269176 0.485718085392315 91.8338465443095 18.2528479151014 -89.6366058075849 2662892.70765158 T 20 CATAB v2.0g-lin.ifort 2021-May-04 10:50:41 2021-May-04 10:50
2049-Jun-12 19:27 00:01 Jupiter 1.91054224336932 1.91054171976753 1.91054276697155 2.83031192266274 2.66907900587132 2469605.310235230 1.47777647418049 115.680776549051 14.9021857603869 -84.5606143576522 2087564.69803368 T 20 CATAB v2.0g-lin.ifort 2021-May-04 10:50:41 2021-May-04 10:50
2131-Oct-05 07:55 00:05 Jupiter 1.91090398094646 1.91090321980779 1.91090474208524 2.67893980534788 2.50802780912764 2499668.829931491 5.06250535871116 106.144684420686 36.3084292462739 -79.5540229918473 2519600.78820343 T 20 CATAB v2.0g-lin.ifort 2021-May-04 10:50:41 2021-May-04 10:50
2156-Jul-25 05:46 00:06 Jupiter 1.95022647878219 1.95022485462372 1.95022810296783 2.97172388470737 2.82179068967327 2508728.739976778 5.95638383540677 398.283785885759 14.5294646357053 -80.9791091285937 2081307.73034502 T 20 CATAB v2.0g-lin.ifort 2021-May-04 10:50:41 2021-May-04 10:50
Ephemeris | Orbit Diagram | Orbital Elements | Mission Design | Physical Parameters | Discovery Circumstances | Close-Approach Data ]
ABOUT SSD CREDITS/AWARDS PRIVACY/COPYRIGHT GLOSSARY LINKS
FirstGov 2021-May-08 02:56 UT
(server date/time)  
NASA Home Page
Site Manager:   Ryan S. Park
Webmaster  Alan B. Chamberlin